Terug naar catalogus

COSMOS 606

ActiefMilitairHEO
NORAD 6916·PAYLOAD·🇷🇺 Russia

Gelanceerd Nov 2, 1973 vanaf Plesetsk Cosmodrome

Loading…

Volgende Passages (komende 24 uur)

TLE

VersSource: Space-Track

Epoch: Sep 13, 2026, 21:42 UTC

1  6916U 73084A   26256.90460043 -.00000669  00000-0  00000+0 0  9992
2  6916  73.0691  67.7593 5049928 116.0434  11.4907  2.00432602387248

Volg COSMOS 606 in realtime met AllMySat

Download on the App Store